Grafton, ND

2:13 PM CDT on April 30, 2017 (GMT -0500)
Grafton Municipal

Weather History for KGAF - October, 2012

Change the Weather History Date:

Tuesday, October 9, 2012

  Actual Average Record
Temperature  
Mean Temperature 36 °F -  
Max Temperature 41 °F 58 °F 80 °F (1975)
Min Temperature 32 °F 35 °F 15 °F (1985)
Degree Days  
Heating Degree Days 28    
Moisture  
Dew Point 31 °F    
Average Humidity 83    
Maximum Humidity 100    
Minimum Humidity 53    
Precipitation  
Precipitation 0.00 in - - ()
Sea Level Pressure  
Sea Level Pressure 29.83 in    
Wind  
Wind Speed 13 mph (NW)    
Max Wind Speed 23 mph    
Max Gust Speed 29 mph    
Visibility 9 miles    
Events Rain , Snow    
Averages and records for this station are not official NWS values.
T = Trace of Precipitation, MM = Missing Value Source: NWS Daily Summary

Daily Weather History Graph

Daily Weather History Graph

Search for Another Location

Airport or City:

Trip Planner

Search our weather history database for the weather conditions in past years. The results will help you decide how hot, cold, wet, or windy it might be!

Date:

Astronomy

Oct. 09, 2012 Rise Set
Actual Time 7:41 AM CDT 6:51 PM CDT
Civil Twilight 7:09 AM CDT 7:22 PM CDT
Nautical Twilight 6:33 AM CDT 7:58 PM CDT
Astronomical Twilight 5:57 AM CDT 8:34 PM CDT
Moon 12:51 AM CDT (10/9) 3:44 PM CDT (10/9)
Length of Visible Light 12h 12m
Length of Day
11h 09m
Last Quarter, 36% of the Moon is Illuminated
Oct 9
Last Quarter
Oct 15
New
Oct 21
First Quarter
Oct 29
Full
Nov 6
Last Quarter

Hourly Weather History & Observations

Time (CDT) Temp. Windchill Dew Point Humidity Pressure Visibility Wind Dir Wind Speed Gust Speed Precip Events Conditions
12:15 AM 39.2 °F 33.0 °F 33.8 °F 81% 29.61 in 10.0 mi West 9.2 mph - N/A   Scattered Clouds
12:35 AM 37.4 °F 31.4 °F 32.0 °F 81% 29.62 in 10.0 mi West 8.1 mph - N/A   Partly Cloudy
12:55 AM 37.4 °F 32.1 °F 32.0 °F 81% 29.62 in 10.0 mi West 6.9 mph - N/A   Partly Cloudy
1:15 AM 37.4 °F 32.1 °F 32.0 °F 81% 29.62 in 10.0 mi West 6.9 mph - N/A   Partly Cloudy
1:55 AM 35.6 °F 29.9 °F 32.0 °F 87% 29.62 in 10.0 mi WSW 6.9 mph - N/A   Overcast
2:15 AM 35.6 °F 29.9 °F 32.0 °F 87% 29.62 in 10.0 mi West 6.9 mph - N/A   Overcast
2:55 AM 37.4 °F 31.4 °F 33.8 °F 87% 29.62 in 10.0 mi West 8.1 mph - N/A   Overcast
3:15 AM 37.4 °F 30.3 °F 32.0 °F 81% 29.62 in 10.0 mi West 10.4 mph - N/A   Overcast
3:35 AM 37.4 °F 28.5 °F 32.0 °F 81% 29.62 in 10.0 mi West 15.0 mph 19.6 mph N/A   Scattered Clouds
3:55 AM 37.4 °F 29.3 °F 32.0 °F 81% 29.62 in 10.0 mi West 12.7 mph - N/A   Mostly Cloudy
4:15 AM 37.4 °F 28.9 °F 33.8 °F 87% 29.63 in 9.0 mi WNW 13.8 mph - N/A Rain Light Rain
4:35 AM 37.4 °F 29.3 °F 33.8 °F 87% 29.63 in 7.0 mi West 12.7 mph - N/A Rain Light Rain
4:55 AM 37.4 °F 29.8 °F 33.8 °F 87% 29.63 in 10.0 mi West 11.5 mph - N/A   Overcast
5:15 AM 37.4 °F 28.9 °F 35.6 °F 93% 29.63 in 10.0 mi West 13.8 mph - N/A   Overcast
5:35 AM 37.4 °F 28.2 °F 35.6 °F 93% 29.64 in 10.0 mi WNW 16.1 mph - N/A Rain Light Rain
5:55 AM 35.6 °F 25.2 °F 32.0 °F 87% 29.66 in 8.0 mi NNW 18.4 mph 26.5 mph N/A Rain Light Rain
6:15 AM 32.0 °F 21.2 °F 32.0 °F 100% 29.67 in 3.0 mi NNW 16.1 mph - N/A Snow Light Snow
6:35 AM 32.0 °F 21.2 °F 32.0 °F 100% 29.68 in 2.5 mi NNW 16.1 mph 19.6 mph N/A Snow Light Snow
6:55 AM 32.0 °F 20.1 °F 32.0 °F 100% 29.69 in 3.0 mi NNW 19.6 mph 25.3 mph N/A Snow Light Snow
7:15 AM 32.0 °F 20.1 °F 32.0 °F 100% 29.71 in 5.0 mi North 19.6 mph 26.5 mph N/A Rain Light Rain
7:55 AM 33.8 °F 23.2 °F 32.0 °F 93% 29.73 in 7.0 mi North 17.3 mph 27.6 mph N/A Rain Light Rain
8:15 AM 33.8 °F 22.5 °F 32.0 °F 93% 29.75 in 9.0 mi NNW 19.6 mph 26.5 mph N/A   Overcast
8:35 AM 33.8 °F 22.8 °F 32.0 °F 93% 29.76 in 10.0 mi NNW 18.4 mph 27.6 mph N/A   Overcast
8:55 AM 35.6 °F 24.5 °F 32.0 °F 87% 29.77 in 10.0 mi North 20.7 mph 28.8 mph N/A   Overcast
9:15 AM 35.6 °F 24.2 °F 32.0 °F 87% 29.79 in 10.0 mi NNW 21.9 mph 27.6 mph N/A   Overcast
9:35 AM 35.6 °F 24.5 °F 32.0 °F 87% 29.80 in 10.0 mi North 20.7 mph 27.6 mph N/A   Overcast
9:55 AM 35.6 °F 25.5 °F 32.0 °F 87% 29.81 in 10.0 mi North 17.3 mph 24.2 mph N/A   Overcast
10:15 AM 35.6 °F 24.8 °F 32.0 °F 87% 29.82 in 9.0 mi NNW 19.6 mph 26.5 mph N/A Rain Light Rain
10:35 AM 35.6 °F 25.5 °F 32.0 °F 87% 29.83 in 10.0 mi North 17.3 mph 25.3 mph N/A   Overcast
10:55 AM 37.4 °F 26.9 °F 32.0 °F 81% 29.84 in 10.0 mi NNW 20.7 mph 27.6 mph N/A   Overcast
11:15 AM 37.4 °F 26.4 °F 32.0 °F 81% 29.85 in 10.0 mi North 23.0 mph 28.8 mph N/A   Overcast
11:35 AM 37.4 °F 28.2 °F 32.0 °F 81% 29.86 in 10.0 mi North 16.1 mph 26.5 mph N/A   Overcast
11:55 AM 37.4 °F 27.5 °F 32.0 °F 81% 29.86 in 10.0 mi NNW 18.4 mph 24.2 mph N/A   Overcast
12:15 PM 37.4 °F 27.2 °F 32.0 °F 81% 29.87 in 10.0 mi NNW 19.6 mph 25.3 mph N/A   Overcast
12:35 PM 39.2 °F 29.8 °F 32.0 °F 75% 29.88 in 10.0 mi NNW 18.4 mph 27.6 mph N/A   Overcast
12:55 PM 39.2 °F 29.3 °F 32.0 °F 75% 29.88 in 10.0 mi NW 20.7 mph 26.5 mph N/A   Mostly Cloudy
1:15 PM 39.2 °F 30.2 °F 32.0 °F 75% 29.88 in 10.0 mi NNW 17.3 mph 26.5 mph N/A   Mostly Cloudy
1:35 PM 39.2 °F 29.6 °F 32.0 °F 75% 29.89 in 10.0 mi NW 19.6 mph 25.3 mph N/A   Scattered Clouds
1:55 PM 35.6 °F 25.5 °F 32.0 °F 87% 29.89 in 9.0 mi NW 17.3 mph - N/A   Scattered Clouds
2:15 PM 37.4 °F 26.9 °F 32.0 °F 81% 29.90 in 10.0 mi NW 20.7 mph - N/A   Scattered Clouds
2:35 PM 41.0 °F 32.2 °F 32.0 °F 70% 29.89 in 10.0 mi NW 18.4 mph 23.0 mph N/A   Partly Cloudy
2:55 PM 41.0 °F 31.6 °F 32.0 °F 70% 29.90 in 10.0 mi WNW 20.7 mph 25.3 mph N/A   Mostly Cloudy
3:15 PM 41.0 °F 32.5 °F 30.2 °F 65% 29.91 in 10.0 mi NW 17.3 mph 23.0 mph N/A   Scattered Clouds
3:35 PM 39.2 °F 30.2 °F 32.0 °F 75% 29.92 in 8.0 mi NNW 17.3 mph 23.0 mph N/A Rain Light Rain
3:55 PM 39.2 °F 29.8 °F 28.4 °F 65% 29.92 in 10.0 mi NNW 18.4 mph 23.0 mph N/A   Mostly Cloudy
4:15 PM 39.2 °F 30.5 °F 28.4 °F 65% 29.92 in 10.0 mi NNW 16.1 mph - N/A   Mostly Cloudy
4:35 PM 41.0 °F 33.1 °F 26.6 °F 57% 29.93 in 10.0 mi NNW 15.0 mph 21.9 mph N/A   Mostly Cloudy
4:55 PM 39.2 °F 31.6 °F 26.6 °F 61% 29.93 in 10.0 mi NNW 12.7 mph 21.9 mph N/A   Scattered Clouds
5:15 PM 41.0 °F 32.8 °F 24.8 °F 53% 29.93 in 10.0 mi NNW 16.1 mph 19.6 mph N/A   Scattered Clouds
5:35 PM 41.0 °F 34.7 °F 24.8 °F 53% 29.94 in 10.0 mi NNW 10.4 mph - N/A   Mostly Cloudy
5:55 PM 39.2 °F 31.6 °F 26.6 °F 61% 29.94 in 10.0 mi NNW 12.7 mph - N/A   Scattered Clouds
6:15 PM 39.2 °F 32.5 °F 26.6 °F 61% 29.95 in 10.0 mi NW 10.4 mph - N/A   Mostly Cloudy
6:35 PM 37.4 °F 33.8 °F 32.0 °F 81% 29.96 in 10.0 mi NNW 4.6 mph - N/A   Overcast
6:55 PM 37.4 °F - 32.0 °F 81% 29.96 in 10.0 mi Calm Calm - N/A   Mostly Cloudy
7:15 PM 35.6 °F 32.8 °F 32.0 °F 87% 29.97 in 10.0 mi NNW 3.5 mph - N/A   Mostly Cloudy
7:35 PM 35.6 °F 29.9 °F 32.0 °F 87% 29.97 in 10.0 mi WNW 6.9 mph - N/A   Mostly Cloudy
7:55 PM 37.4 °F 30.3 °F 32.0 °F 81% 29.98 in 10.0 mi WNW 10.4 mph - N/A   Mostly Cloudy
8:15 PM 35.6 °F 27.5 °F 32.0 °F 87% 29.99 in 10.0 mi WNW 11.5 mph - N/A Rain Light Rain
8:35 PM 35.6 °F 29.9 °F 32.0 °F 87% 29.98 in 10.0 mi NW 6.9 mph - N/A Snow Light Snow
8:55 PM 35.6 °F 31.7 °F 32.0 °F 87% 29.98 in 10.0 mi NW 4.6 mph - N/A   Mostly Cloudy
9:15 PM 33.8 °F 29.6 °F 32.0 °F 93% 29.98 in 10.0 mi NW 4.6 mph - N/A   Overcast
9:35 PM 33.8 °F 29.6 °F 32.0 °F 93% 29.98 in 10.0 mi WNW 4.6 mph - N/A   Mostly Cloudy
9:55 PM 32.0 °F 26.4 °F 32.0 °F 100% 29.98 in 10.0 mi WNW 5.8 mph - N/A   Clear
10:15 PM 33.8 °F 27.0 °F 32.0 °F 93% 29.99 in 10.0 mi WNW 8.1 mph - N/A   Partly Cloudy
10:35 PM 33.8 °F 27.0 °F 30.2 °F 87% 29.99 in 10.0 mi WNW 8.1 mph - N/A   Mostly Cloudy
10:55 PM 33.8 °F 27.7 °F 30.2 °F 87% 29.99 in 10.0 mi West 6.9 mph - N/A   Mostly Cloudy
11:15 PM 32.0 °F 26.4 °F 30.2 °F 93% 29.99 in 10.0 mi West 5.8 mph - N/A   Scattered Clouds
11:35 PM 32.0 °F 25.6 °F 30.2 °F 93% 29.99 in 10.0 mi West 6.9 mph - N/A   Clear
11:55 PM 32.0 °F 26.4 °F 28.4 °F 87% 29.99 in 10.0 mi West 5.8 mph - N/A   Clear